sat.trackr.live / text

‹ back to catalog

STARLINK-35534

NORAD 66202 · 2025-243AB

PAYLOAD ACTIVE UNKNOWN

§ Identity

Operator
Country
US
Launch date
2025-10-26
Launch site
AFETR
Launch vehicle
Mass (kg)
RCS (m²)

Purposes: comms

External: N2YO · Heavens-Above · Gunter

§ Orbital elements

Epoch: 2026-09-20T17:13:33.785760Z

Period
93.85 min
Inclination
53.1536°
Eccentricity
0.0000729
Mean motion
15.34404253 rev/d
Perigee alt
462.2 km
Apogee alt
463.2 km
Semi-major
6,840.8 km
B*
4.8270e-4
RAAN
58.6404°
Arg perigee
81.7991°
Mean anomaly
278.3094°
Rev number
5,052

§ Raw data

STARLINK-355341 66202U 25243AB  26263.71775215  .00015970  00000+0  48270-3 0  99912 66202  53.1536  58.6404 0000729  81.7991 278.3094 15.34404253 50527

JSON: /api/v1/satellites/66202 · /tle

For live sub-satellite position, see the globe view (requires WebGL).

§ Visibility from observer

Set your observer location to see the next 7 days of passes ≥ 10°. The values pass through the URL so the page stays shareable.

No JS? Fill the form by hand. The geolocation button needs JavaScript.